Home   Weather   Saint-Pierre   Past weeks

Flag for Saint Pierre and Miquelon Past Weather in Saint-Pierre, Saint Pierre and Miquelon — Yesterday and Last 2 Weeks

Now
50 °F

Cool.


Feels Like: 46 °F
Forecast: 50 / 53 °F
Wind: 9 mph from North

Location: Saint-Pierre

Current Time: Sep 25, 2016 at 1:57:21 AM

Latest Report: Sep 25, 2016 at 1:00 AM


Visibility: 37 mi

Pressure: 29.71 "Hg

Humidity: 69%

Dew Point: 40 °F

Location of Saint-PierreLocation

Past Weather in Saint-Pierre — Graph

°F

Saint-Pierre Temperature Yesterday

Maximum temperature yesterday: 59 °F (at 5:00 PM)
Minimum temperature yesterday: 50 °F (at 11:00 PM)
Average temperature yesterday: 55 °F

High & Low Weather Summary for the Past Weeks

 TemperatureHumidityPressure
High64 °F (Sep 14, 1:00 PM)97% (Sep 10, 12:00 AM)30.30 "Hg (Sep 10, 12:00 AM)
Low46 °F (Sep 16, 1:00 AM)56% (Sep 24, 4:00 PM)29.62 "Hg (Sep 24, 7:00 AM)
Average56 °F85%30.00 "Hg
* Reported Sep 10 12:00 AM — Sep 25 12:00 AM, Saint-Pierre, Weather by CustomWeather, © 2016

Note: Actual official high and low records may vary slightly from our data, if they occured in-between our weather recording intervals... More about our weather records

Advertising

Saint-Pierre Weather History for the Previous 24 Hours

Scroll right to see more
 ConditionsComfort  
Time TempWeatherWind HumidityBarometerVisibility
12:00 AM
Sun, Sep 25
49 °FCool.10 mph73%29.71 "Hg37 mi
11:00 PM
Sat, Sep 24
50 °FCool.13 mph71%29.72 "Hg37 mi
10:00 PM52 °FClear.16 mph70%29.73 "Hg31 mi
9:00 PM51 °FClear.14 mph70%29.74 "Hg31 mi
8:00 PM52 °FCool.13 mph69%29.73 "Hg37 mi
7:00 PM56 °FPassing clouds.13 mph64%29.72 "Hg31 mi
6:00 PM58 °FPassing clouds.14 mph59%29.70 "Hg31 mi
5:00 PM59 °FRefreshingly cool.15 mph59%29.70 "Hg34 mi
4:00 PM59 °FPassing clouds.17 mph56%29.71 "Hg31 mi
2:00 PM57 °FPassing clouds.20 mph65%29.70 "Hg31 mi
1:00 PM56 °FPassing clouds.20 mph64%29.70 "Hg31 mi
12:00 PM56 °FPassing clouds.18 mph65%29.71 "Hg31 mi
11:00 AM54 °FPassing clouds.21 mph70%29.71 "Hg31 mi
10:00 AM51 °FPartly sunny.18 mph79%29.70 "Hg31 mi
9:00 AM52 °FOvercast.16 mph84%29.67 "Hg31 mi
8:00 AM52 °FPartly sunny.20 mph89%29.64 "Hg31 mi
7:00 AM54 °FPassing clouds.12 mph94%29.62 "Hg19 mi
6:00 AM55 °FLow clouds.15 mph94%29.63 "Hg12 mi
5:00 AM56 °FLow clouds.16 mph95%29.63 "Hg7 mi
4:00 AM57 °FOvercast.13 mph96%29.67 "Hg7 mi
3:00 AM56 °FOvercast.8 mph96%29.70 "Hg9 mi
2:00 AM55 °FHeavy rain. Low clouds.12 mph96%29.74 "Hg2 mi
1:00 AM55 °FLight rain. Overcast.14 mph96%29.78 "Hg4 mi
Weather by CustomWeather, © 2016

See weather overviewHow to use our weather pages